Regional Weather Roundup
Issued by NWS

Home | Current Version | Previous Version | Graphics & Text | Print | Product List | Glossary On
Versions: 1 2 3 4 5 6 7 8 9 10 11 12 13 14 15 16 17 18 19 20 21 22 23 24 25 26 27 28 29 30 31 32 33 34 35 36 37 38 39 40 41 42 43 44 45 46 47 48 49 50
000
ASUS43 KFSD 111610
RWRSD

WEATHER ROUNDUP FOR SOUTH DAKOTA
NATIONAL WEATHER SERVICE SIOUX FALLS SD
1100 AM CDT FRI JUL 11 2014

NOTE: "FAIR" INDICATES FEW OR NO CLOUDS BELOW 12,000 FEET WITH NO
SIGNIFICANT WEATHER AND/OR OBSTRUCTIONS TO VISIBILITY.


SDZ001>005-009-010-012>017-111700-
NORTHWEST AND NORTH CENTRAL SOUTH DAKOTA

CITY           SKY/WX    TMP DP  RH WIND       PRES   REMARKS
BUFFALO          N/A     75  60  59 NE18G28   30.01R
FAITH            N/A     80  68  66 NE20      29.99R
MOBRIDGE       PTSUNNY   79  69  71 N16       29.93R
$$

SDZ012>016-024>037-041>051-057-063-072>074-111700-
SOUTHWEST AND SOUTH CENTRAL SOUTH DAKOTA

CITY           SKY/WX    TMP DP  RH WIND       PRES   REMARKS
RAPID CTY ARPT SUNNY     83  63  50 N9        30.01R
PIERRE         SUNNY     84  70  62 N9        29.92R
CUSTER         MOSUNNY   78  53  41 E9        30.16R
ELLSWORTH AFB  SUNNY     81  63  53 N10       30.02R
PHILIP         SUNNY     86  66  51 CALM      29.94S
PINE RIDGE     MOSUNNY   80  66  62 VRB3      30.02R
WINNER         FAIR      81  66  60 W7        29.94R
$$

SDZ004>011-016>023-039-040-111700-
NORTHEAST SOUTH DAKOTA

CITY           SKY/WX    TMP DP  RH WIND       PRES   REMARKS
ABERDEEN       SUNNY     79  70  74 NE7       29.91R
WATERTOWN      MOSUNNY   78  69  73 W9        29.91R
SISSETON         N/A     81  70  69 CALM      29.88R
$$

SDZ017-020-022-023-036>040-048>070-111700-
SOUTHEAST SOUTH DAKOTA

CITY           SKY/WX    TMP DP  RH WIND       PRES   REMARKS
SIOUX FALLS    PTSUNNY   77  69  76 S17       29.93R
HURON          MOSUNNY   83  69  62 N10       29.89R
CHAMBERLAIN    MOSUNNY   83  72  69 CALM      29.91R
MITCHELL       MOSUNNY   80  71  74 SW12      29.91R
YANKTON        PTSUNNY   75  70  83 SW13      29.94R
$$

ABBREVIATIONS USED IN REMARKS
   TC - TEMPERATURE IN CELSIUS
  WCI - WIND CHILL INDEX
   HX - HEAT INDEX
  VSB - VISIBILITY



USA.gov is the U.S. government's official web portal to all federal, state and local government web resources and services.